Погода в Родоманове

Россия / Смоленская область     55°38′05″N   34°47′57″E
темп.,
°C
ветер,
м/с
пор.,
м/с
влажн.,
%
обл.,
%
осадки,
мм/ч
давл.,
гПа
погр.,
м
13 апреля, вт
вт1300:00+9вюв3894100 0.0 1024204
03:00+8вюв379497 0.0 1023166
06:00+7юв389473 0.0 1023149
09:00+11ююв497593 0.0 1022335
12:00+17ю5855100 0.0 1022711
15:00+19ю584689 0.0 10212108
18:00+17ююв485576 0.0 1020319
21:00+13ююв5146698 0.0 1020415
14 апреля, ср
ср1400:00+11ююв377573 0.0 1020130
03:00+10юв377699 0.0 1019153
06:00+9ююв3118073 0.0 1018231
09:00+12ю487258 0.0 1018483
12:00+14ю466995 0.0 1018739
15:00+17ю3555100 0.2 10171284
18:00+15зюз2364100 0.6 101657
21:00+12св1176100 0.7 101613
15 апреля, чт
чт1500:00+11всв2273100 0.0 101619
03:00+9юв2275100 0.0 101629
06:00+9всв227699 0.0 101635
09:00+12в2465100 0.0 1017270
12:00+16в3446100 0.0 1016894
15:00+17в4541100 0.0 10161353
18:00+15всв3655100 0.0 1016227
21:00+11с2480100 0.3 101769
16 апреля, пт
пт1600:00+9ссв51092100 1.8 1018309
03:00+8св51291100 2.0 1018398
06:00+7св61390100 0.1 1019442
09:00+8св71383100 0.1 1020528
12:00+12всв71069100 0.0 1020829
15:00+12св71168100 0.0 1021892
18:00+11св71273100 0.0 1022782
21:00+9св61376100 0.0 1024717
17 апреля, сб
сб1700:00+7св6147758 0.0 1026667
03:00+5св613685 0.0 1027478
06:00+3св6147114 0.0 1028455
09:00+7всв712571 0.0 1029793
12:00+10всв710420 0.0 10301360
15:00+11всв79391 0.0 10311561
18:00+10всв69470 0.0 10311404
21:00+6всв512500 0.0 1034465